Back to catalog

STARLINK-37327

AliveCommunicationsSSO
NORAD 68736·PAYLOAD·🇺🇸 United States

Launched Apr 15, 2026 from Vandenberg Space Force Base

Loading…

Next Passes (next 24 hours)

TLE

FreshSource: CelesTrak SupGP

Epoch: Sep 14, 2026, 21:17 UTC

1 68736C 26082J   26257.88729167  .00022843  00000+0  70957-3 0  2574
2 68736  97.2848 120.0764 0001770  90.6041 235.7681 15.33405740    10

Track STARLINK-37327 in real time with AllMySat

Download on the App Store